Terminal Aerodrome Forecast
Issued by NWS Rapid City, SD

Home | Current Version | Previous Version | Graphics & Text | Print | Product List | Glossary On
Versions: 1 2 3 4 5 6 7 8 9 10 11 12 13 14 15 16 17
000
FTUS43 KUNR 271742
TAFRAP
TAF
KRAP 271742Z 2718/2818 17016KT P6SM FEW150
      TEMPO 2722/2802 4SM TSRAGS BKN060CB
     FM280200 32023G33KT P6SM SCT100=

USA.gov is the U.S. government's official web portal to all federal, state and local government web resources and services.